Home > Weather > Lakewood > Past weeks

Flag for USA Past Weather in Lakewood, Colorado, USA — Yesterday and Last 2 Weeks

Now
82 °F

Passing clouds.


Feels Like: 81 °F
Forecast: 59 / 89 °F
Wind: 13 mph from East

Location: Centennial Airport

Current Time: Jul 27, 2016 at 8:53:11 PM

Latest Report: Jul 27, 2016 at 7:53 PM


Visibility: 10 mi

Pressure: 29.92 "Hg (24.71 "Hg at 1683m altitude)

Humidity: 35%

Dew Point: 52 °F

Location of LakewoodLocation

Past Weather in Lakewood — Graph

°F

Lakewood Temperature Yesterday

Maximum temperature yesterday: 88 °F (at 11:53 AM)
Minimum temperature yesterday: 67 °F (at 5:53 AM)
Average temperature yesterday: 79 °F

High & Low Weather Summary for the Past Weeks

 TemperatureHumidityPressure
High94 °F (Jul 16, 2:53 PM)82% (Jul 15, 6:53 PM)30.24 "Hg (Jul 15, 6:53 PM)
Low58 °F (Jul 25, 2:53 AM)7% (Jul 16, 3:53 PM)29.69 "Hg (Jul 16, 5:53 PM)
Average76 °F37%29.95 "Hg
* Reported Jul 12 6:53 PM — Jul 27 6:53 PM, Lakewood, Weather by CustomWeather, © 2016

Note: Actual official high and low records may vary slightly from our data, if they occured in-between our weather recording intervals... More about our weather records

Advertising

Lakewood Weather History for the Previous 24 Hours

Scroll right to see more
 ConditionsComfort  
Time TempWeatherWind HumidityBarometerVisibility
6:53 PM
Wed, Jul 27
89 °FScattered clouds.7 mph15%29.91 "Hg10 mi
5:53 PM91 °FPassing clouds.3 mph13%29.89 "Hg10 mi
4:53 PM90 °FPassing clouds.5 mph15%29.92 "Hg10 mi
3:53 PM90 °FPassing clouds.8 mph17%29.93 "Hg10 mi
2:53 PM88 °FPassing clouds.3 mph20%29.94 "Hg10 mi
1:53 PM85 °FPassing clouds.5 mph23%29.96 "Hg10 mi
12:53 PM82 °FPassing clouds.3 mph27%30.01 "Hg10 mi
11:53 AM79 °FPassing clouds.7 mph31%30.03 "Hg10 mi
10:53 AM77 °FPassing clouds.8 mph35%30.03 "Hg10 mi
9:53 AM75 °FPassing clouds.12 mph34%30.03 "Hg10 mi
8:53 AM73 °FPassing clouds.15 mph33%30.02 "Hg10 mi
7:53 AM69 °FPassing clouds.7 mph35%30.01 "Hg10 mi
6:53 AM61 °FPassing clouds.8 mph54%30.00 "Hg10 mi
5:53 AM62 °FPassing clouds.8 mph54%29.99 "Hg10 mi
4:53 AM60 °FPassing clouds.5 mph78%29.98 "Hg10 mi
3:53 AM63 °FPassing clouds.7 mph78%29.96 "Hg10 mi
2:53 AM67 °FPassing clouds.10 mph66%29.94 "Hg10 mi
1:53 AM68 °FPassing clouds.15 mph38%29.94 "Hg10 mi
12:53 AM66 °FPassing clouds.6 mph40%29.93 "Hg10 mi
11:53 PM
Tue, Jul 26
68 °FPartly cloudy.5 mph36%29.94 "Hg10 mi
10:53 PM73 °FPartly cloudy.5 mph27%29.93 "Hg10 mi
9:53 PM76 °FPassing clouds.6 mph24%29.92 "Hg10 mi
8:53 PM78 °FScattered clouds.9 mph22%29.93 "Hg10 mi
Weather by CustomWeather, © 2016

See weather overviewHow to use our weather pages